EW4702 Weather Reports


time (UTC)temp
C
wind
direction
speed
KPH
gust
KPH
rain 1hr
cm
rain 24hr
cm
rain mn
cm
humidity
%
barometer
mb
20260906043058 21 24 0.0 0.0 0.00 0.00 0.00 98 1010.3
20260906041550 21 23 0.0 0.0 0.00 0.00 0.00 97 1010.2
20260906040048 22 19 0.0 0.0 0.00 0.00 0.00 98 1010.5
20260906034607 22 5 0.0 0.0 0.00 0.00 0.00 98 1010.5
20260906033046 22 5 0.0 0.0 0.00 0.00 0.00 96 1010.7
20260906031551 22 5 0.0 0.0 0.00 0.00 0.00 96 1010.9
20260906030044 22 5 0.0 0.0 0.00 0.00 0.00 96 1010.7
20260906024543 22 5 0.0 0.0 0.00 0.00 0.00 95 1010.6
20260906023041 22 5 0.0 0.0 0.00 0.00 0.00 95 1010.4
20260906021540 22 26 0.0 0.0 0.00 0.00 0.00 94 1010.3
20260906020041 22 38 0.0 0.0 0.00 0.00 0.00 94 1010.2
20260906014541 22 10 0.0 0.0 0.00 0.00 0.00 95 1010.1
20260906013056 22 10 0.0 0.0 0.00 0.00 0.00 94 1010.0
20260906011545 23 9 0.0 0.0 0.00 0.00 0.00 94 1009.6
20260906010037 23 21 0.0 0.0 0.00 0.00 0.00 93 1009.7
20260906004538 23 21 0.0 0.0 0.00 0.00 0.00 93 1009.6
20260906003036 23 21 0.0 0.0 0.00 0.00 0.00 92 1009.3
20260906001533 24 21 0.0 0.0 0.00 0.00 0.00 91 1009.1
20260906000033 25 21 0.0 0.0 0.00 0.00 0.00 91 1009.1
20260905234532 25 42 0.0 0.0 0.00 0.00 0.00 90 1008.9
20260905233038 25 42 0.0 0.0 0.00 0.00 0.00 89 1009.0
20260905231531 26 42 0.0 0.0 0.00 0.00 0.00 87 1008.7
20260905230028 27 36 0.0 0.0 0.00 0.00 0.00 84 1008.5
20260905224528 28 19 0.0 3.2 0.00 0.00 0.00 80 1008.3
20260905223024 29 26 1.6 4.8 0.00 0.00 0.00 75 1008.4
20260905221525 29 9 0.0 3.2 0.00 0.00 0.00 76 1008.6
20260905220023 28 13 0.0 4.8 0.00 0.00 0.00 77 1008.6
20260905214526 28 322 0.0 3.2 0.00 0.00 0.00 79 1008.6
20260905213021 27 286 3.2 11.3 0.00 0.00 0.00 75 1008.7
20260905211519 27 159 0.0 6.4 0.00 0.00 0.00 79 1008.9
20260905210031 26 287 1.6 6.4 0.00 0.00 0.00 83 1009.1
20260905204517 25 137 0.0 3.2 0.00 0.00 0.00 86 1009.1
20260905203016 26 152 1.6 3.2 0.00 0.00 0.00 84 1009.4
20260905201516 26 165 0.0 3.2 0.00 0.00 0.00 82 1009.6
20260905200021 26 265 3.2 6.4 0.00 0.00 0.00 81 1009.7
20260905194514 25 281 6.4 14.5 0.00 0.00 0.00 84 1009.9
20260905193011 26 230 3.2 8.0 0.00 0.00 0.00 83 1010.0
20260905191511 26 346 3.2 11.3 0.00 0.00 0.00 84 1010.0
20260905190013 26 185 0.0 4.8 0.00 0.00 0.00 84 1009.4
20260905184513 26 273 0.0 6.4 0.00 0.00 0.00 85 1009.5
20260905183007 26 281 0.0 4.8 0.00 0.00 0.00 85 1009.7
20260905181505 27 68 0.0 3.2 0.00 0.00 0.00 81 1008.9
20260905180002 28 22 0.0 3.2 0.00 0.00 0.00 78 1010.0
20260905174606 29 26 0.0 4.8 0.00 0.00 0.00 76 1010.7
20260905173058 30 81 0.0 4.8 0.00 0.00 0.00 71 1010.6
20260905171629 31 173 3.2 8.0 0.00 0.00 0.00 65 1010.5
20260905170104 32 124 1.6 8.0 0.00 0.00 0.00 72 1010.4
20260905164554 31 202 1.6 4.8 0.00 0.00 0.00 65 1010.6
20260905163056 32 173 3.2 11.3 0.00 0.00 0.00 66 1010.7
20260905161547 31 92 0.0 4.8 0.00 0.00 0.00 73 1011.0
20260905160043 30 117 1.6 8.0 0.00 0.00 0.00 73 1011.2
20260905154554 30 181 1.6 12.9 0.00 0.00 0.00 73 1011.4
20260905153037 29 138 0.0 4.8 0.00 0.00 0.00 82 1011.1
20260905151530 28 149 0.0 3.2 0.00 0.00 0.00 85 1011.0
20260905150038 27 138 1.6 4.8 0.00 0.00 0.00 87 1011.0
20260905144523 26 145 0.0 4.8 0.00 0.00 0.00 91 1011.0
20260905143020 26 145 0.0 3.2 0.00 0.00 0.00 90 1011.1
20260905141548 25 117 1.6 4.8 0.00 0.00 0.00 93 1011.2
20260905140043 25 144 1.6 8.0 0.00 0.00 0.00 98 1011.2
20260905134637 24 128 0.0 3.2 0.00 0.00 0.00 99 1011.3
20260905133035 23 107 0.0 3.2 0.00 0.00 0.00 99 1011.3
20260905131537 23 112 0.0 6.4 0.00 0.00 0.00 100 1011.5
20260905130031 22 24 0.0 0.0 0.00 0.00 0.00 100 1011.7
20260905124526 22 24 0.0 0.0 0.00 0.00 0.00 100 1011.9
20260905123034 22 24 0.0 3.2 0.00 0.00 0.00 99 1011.6
20260905121523 22 24 0.0 1.6 0.00 0.00 0.00 100 1011.6
20260905120025 21 24 0.0 1.6 0.00 0.00 0.00 100 1011.7
20260905114520 21 24 0.0 1.6 0.00 0.00 0.00 99 1011.4
20260905113018 21 24 0.0 3.2 0.00 0.00 0.00 99 1011.3
20260905111519 21 26 0.0 1.6 0.00 0.00 0.00 99 1011.0
20260905110014 21 26 0.0 3.2 0.00 0.00 0.00 99 1010.7
20260905104605 21 10 0.0 1.6 0.00 0.00 0.00 99 1010.6
20260905103043 21 10 0.0 1.6 0.00 0.00 0.00 99 1010.5
20260905101513 21 10 0.0 3.2 0.00 0.00 0.00 99 1010.4
20260905100012 21 10 0.0 3.2 0.00 0.00 0.00 99 1010.4
20260905094510 22 10 0.0 3.2 0.00 0.00 0.00 99 1010.4
20260905093009 22 10 0.0 1.6 0.00 0.00 0.00 99 1010.3
20260905091508 22 10 0.0 3.2 0.00 0.00 0.00 99 1010.3
20260905090009 22 10 0.0 0.0 0.00 0.00 0.00 99 1010.4
20260905084502 22 10 0.0 3.2 0.00 0.00 0.00 98 1010.5
20260905083101 22 10 0.0 1.6 0.00 0.00 0.00 98 1010.7
20260905081602 22 10 0.0 1.6 0.00 0.00 0.00 98 1010.8
20260905080107 22 10 0.0 3.2 0.00 0.00 0.00 98 1011.0
20260905074601 22 10 0.0 3.2 0.00 0.00 0.00 98 1011.3
20260905073106 22 10 0.0 1.6 0.00 0.00 0.00 98 1011.3
20260905071553 22 10 0.0 3.2 0.00 0.00 0.00 97 1011.4
20260905070051 22 10 0.0 3.2 0.00 0.00 0.00 98 1011.4
20260905064521 22 10 0.0 0.0 0.00 0.00 0.00 98 1011.6
20260905063021 22 10 0.0 0.0 0.00 0.00 0.00 97 1011.7
20260905061525 22 10 1.6 3.2 0.00 0.00 0.00 97 1011.9
20260905060029 22 10 0.0 3.2 0.00 0.00 0.00 97 1012.1
20260905054523 23 10 0.0 3.2 0.00 0.00 0.00 97 1012.2
20260905053017 23 10 0.0 1.6 0.00 0.00 0.00 97 1012.4
20260905051527 23 10 0.0 3.2 0.00 0.00 0.00 96 1012.4
20260905050014 23 10 0.0 3.2 0.00 0.00 0.00 96 1012.3
20260905044513 23 10 0.0 4.8 0.00 0.00 0.00 97 1012.3